This is the latest recevied weather packets stored in our database for station/object W7WSW. If no packets are shown the sender has not sent any weather packets the latest 10 day(s).
| Time | Temp. | Humidity | Pressure | Rain* | Wind** | Luminosity | Snow |
|---|---|---|---|---|---|---|---|
| 1777147116 | 15.56° C | 70% | 1010.5 hPa | 0 mm | - | 831 W/m² | - |
| 1777147056 | 15.56° C | 69% | 1010.5 hPa | 0 mm | - | 833 W/m² | - |
| 1777146996 | 15.56° C | 69% | 1010.5 hPa | 0 mm | - | 833 W/m² | - |
| 1777146940 | 15.56° C | 68% | 1010.6 hPa | 0 mm | - | 835 W/m² | - |
| 1777146871 | 15.56° C | 67% | 1010.5 hPa | 0 mm | - | 833 W/m² | - |
| 1777146810 | 15.56° C | 66% | 1010.5 hPa | 0 mm | - | 833 W/m² | - |
| 1777146750 | 15.56° C | 65% | 1010.5 hPa | 0 mm | - | 837 W/m² | - |
| 1777146690 | 15.56° C | 64% | 1010.6 hPa | 0 mm | - | 833 W/m² | - |
| 1777146634 | 15.56° C | 63% | 1010.6 hPa | 0 mm | - | 833 W/m² | - |
| 1777146566 | 15.56° C | 65% | 1010.6 hPa | 0 mm | - | 833 W/m² | - |
| 1777146506 | 15.56° C | 66% | 1010.6 hPa | 0 mm | - | 833 W/m² | - |
| 1777146446 | 15.56° C | 66% | 1010.6 hPa | 0 mm | - | 831 W/m² | - |
| 1777146386 | 15.56° C | 65% | 1010.6 hPa | 0 mm | - | 831 W/m² | - |
| 1777146327 | 15.56° C | 64% | 1010.6 hPa | 0 mm | - | 831 W/m² | - |
| 1777146259 | 15.56° C | 62% | 1010.6 hPa | 0 mm | - | 831 W/m² | - |
| 1777146199 | 15.56° C | 66% | 1010.7 hPa | 0 mm | - | 830 W/m² | - |
| 1777146138 | 16.11° C | 68% | 1010.7 hPa | 0 mm | - | 830 W/m² | - |
| 1777146078 | 16.11° C | 68% | 1010.7 hPa | 0 mm | - | 831 W/m² | - |
| 1777146021 | 16.11° C | 67% | 1010.7 hPa | 0 mm | - | 830 W/m² | - |
| 1777145954 | 16.11° C | 67% | 1010.7 hPa | 0 mm | - | 830 W/m² | - |
| 1777145894 | 16.11° C | 66% | 1010.7 hPa | 0 mm | - | 828 W/m² | - |
| 1777145832 | 16.11° C | 65% | 1010.7 hPa | 0 mm | - | 828 W/m² | - |
| 1777145786 | 15.56° C | 65% | 1010.7 hPa | 0 mm | - | 830 W/m² | - |
| 1777145776 | 15.56° C | 66% | 1010.7 hPa | 0 mm | - | 828 W/m² | - |
| 1777145650 | 15.56° C | 67% | 1010.8 hPa | 0 mm | - | 824 W/m² | - |
* Rain latest hour (hover to see other rain measurements)
** Current wind speed in m/s (hover to see current wind gust speed)